�N����,����,�~����,�C��,���x,�C��,����,���ϕ���,�ő�u�ԕ���,�ő厞����,���˗�,�I�_���x,�n�����x,�ő啗���N��,DTYPE
"17/05/12","00:10",0.0,15.5,88.9,1008.3,291.0,0.8,1.3,278.4,0.00,13.7,17.0,"00:00:48",1
"17/05/12","00:20",0.0,15.4,89.2,1008.3,318.0,1.0,1.2,303.5,0.00,13.7,17.0,"00:12:08",1
"17/05/12","00:30",0.0,14.8,89.1,1008.1,313.9,1.3,2.0,311.6,0.00,13.1,17.0,"00:27:20",1
"17/05/12","00:40",0.0,14.6,90.6,1008.1,331.9,1.1,1.6,332.6,0.00,13.1,16.9,"00:32:24",1
"17/05/12","00:50",0.0,14.5,91.2,1007.8,306.5,1.2,1.6,323.2,0.00,13.1,16.8,"00:49:12",1
"17/05/12","01:00",0.0,14.4,91.6,1008.3,309.9,1.1,1.6,321.7,0.00,13.1,16.7,"00:55:52",1
"17/05/12","01:10",0.0,14.2,92.3,1007.8,317.5,1.1,1.6,323.2,0.00,13.0,16.4,"01:02:00",1
"17/05/12","01:20",0.0,14.3,92.9,1008.1,299.1,1.3,1.6,305.8,0.00,13.2,16.6,"01:12:40",1
"17/05/12","01:30",0.0,14.3,93.2,1007.8,292.8,1.0,1.3,303.5,0.00,13.3,16.4,"01:26:32",1
"17/05/12","01:40",0.0,14.3,93.1,1007.6,295.4,1.0,1.6,318.4,0.00,13.2,16.4,"01:37:20",1
"17/05/12","01:50",0.0,14.4,93.2,1007.6,284.1,1.1,1.9,331.6,0.00,13.4,16.5,"01:49:04",1
"17/05/12","02:00",0.0,14.5,93.1,1007.8,283.5,0.8,1.3,296.6,0.00,13.4,16.4,"01:50:40",1
"17/05/12","02:10",0.0,14.3,92.8,1007.8,301.4,1.1,1.7,330.2,0.00,13.2,16.3,"02:08:08",1
"17/05/12","02:20",0.0,14.2,93.1,1008.1,335.5,1.1,1.7,317.6,0.00,13.1,16.4,"02:10:16",1
"17/05/12","02:30",0.0,13.9,93.1,1008.1,295.3,0.5,0.9,300.8,0.00,12.8,16.3,"02:23:28",1
"17/05/12","02:40",0.0,13.6,93.0,1008.3,322.5,1.3,2.0,324.6,0.00,12.5,16.2,"02:39:04",1
"17/05/12","02:50",0.0,13.5,94.2,1008.3,333.4,1.3,1.9,331.3,0.00,12.6,16.2,"02:40:50",1
"17/05/12","03:00",0.0,13.5,94.5,1008.3,314.4,1.0,1.3,315.9,0.00,12.7,15.8,"02:57:20",1
"17/05/12","03:10",0.0,13.5,94.6,1008.3,326.5,1.3,1.6,323.3,0.00,12.7,16.0,"03:07:12",1
"17/05/12","03:20",0.0,13.5,94.7,1008.8,326.8,1.2,1.7,332.5,0.00,12.7,16.0,"03:11:44",1
"17/05/12","03:30",0.0,13.4,94.9,1008.3,300.0,1.1,1.6,320.0,0.00,12.6,16.1,"03:20:02",1
"17/05/12","03:40",0.0,13.6,95.2,1008.8,283.5,1.1,1.6,299.7,0.00,12.9,16.1,"03:30:16",1
"17/05/12","03:50",0.0,13.8,95.1,1009.0,291.0,1.1,1.6,317.9,0.00,13.1,16.1,"03:48:00",1
"17/05/12","04:00",0.0,13.4,94.6,1009.0,319.7,1.5,2.0,334.3,0.00,12.6,15.8,"03:55:28",1
"17/05/12","04:10",0.0,13.2,95.1,1008.8,325.5,1.5,1.8,314.0,0.00,12.5,15.9,"04:09:28",1
"17/05/12","04:20",0.0,13.1,95.3,1008.8,323.2,1.5,1.9,325.5,0.00,12.4,15.6,"04:11:04",1
"17/05/12","04:30",0.0,13.0,95.4,1008.6,319.5,1.3,2.1,322.8,0.00,12.3,15.9,"04:29:20",1
"17/05/12","04:40",0.0,12.9,95.8,1008.8,326.3,1.5,1.8,333.7,0.00,12.3,15.9,"04:30:32",1
"17/05/12","04:50",0.0,12.9,95.9,1008.8,308.0,1.2,1.9,313.7,0.00,12.3,15.8,"04:40:02",1
"17/05/12","05:00",0.0,13.1,96.1,1009.0,324.4,1.2,2.0,327.3,0.00,12.5,15.5,"04:50:16",1
"17/05/12","05:10",0.0,12.9,96.1,1009.5,295.9,0.8,1.4,317.8,0.00,12.3,15.6,"05:09:24",1
"17/05/12","05:20",0.0,13.0,96.3,1009.7,320.6,1.5,1.8,325.3,0.00,12.5,15.5,"05:15:04",1
"17/05/12","05:30",0.0,13.1,96.5,1009.7,314.2,1.3,2.2,318.7,0.00,12.6,15.6,"05:23:20",1
"17/05/12","05:40",0.0,13.3,96.5,1009.5,295.0,1.1,1.3,303.4,0.00,12.8,15.6,"05:33:44",1
"17/05/12","05:50",0.0,13.4,96.4,1009.7,312.4,1.0,1.6,324.0,0.00,12.9,15.7,"05:44:40",1
"17/05/12","06:00",0.0,13.6,96.3,1009.5,298.2,0.6,1.8,315.3,0.01,13.1,15.4,"05:50:02",1
"17/05/12","06:10",0.0,13.7,96.5,1010.0,333.6,1.2,1.9,314.1,0.01,13.2,15.6,"06:00:08",1
"17/05/12","06:20",0.0,14.1,96.4,1009.7,304.2,1.1,2.0,320.5,0.02,13.6,15.5,"06:19:04",1
"17/05/12","06:30",0.0,14.6,96.4,1010.0,330.4,1.0,1.7,329.1,0.03,14.1,15.5,"06:20:48",1
"17/05/12","06:40",0.0,15.5,96.0,1010.4,317.0,0.3,0.8,309.5,0.04,14.9,15.7,"06:31:20",1
"17/05/12","06:50",0.0,16.0,93.7,1010.2,345.4,0.6,1.2,319.6,0.07,15.0,15.7,"06:45:44",1
"17/05/12","07:00",0.0,17.1,89.0,1010.7,336.9,1.0,1.4,340.3,0.09,15.3,15.6,"06:52:00",1
"17/05/12","07:10",0.0,18.0,84.8,1010.7,346.0,0.5,0.9,79.3,0.13,15.4,15.9,"07:03:20",1
"17/05/12","07:20",0.0,18.1,83.8,1010.7,309.8,1.0,1.8,301.0,0.11,15.4,15.8,"07:16:48",1
"17/05/12","07:30",0.0,18.9,82.1,1010.7,330.4,0.7,1.8,335.4,0.16,15.8,15.9,"07:20:08",1
"17/05/12","07:40",0.0,19.5,80.1,1010.4,312.8,0.2,1.0,337.6,0.18,16.0,16.0,"07:39:52",1
"17/05/12","07:50",0.0,20.2,75.0,1010.4,317.7,0.5,1.1,357.1,0.23,15.7,16.1,"07:43:04",1
"17/05/12","08:00",0.0,19.8,76.9,1010.7,222.7,0.2,1.0,120.8,0.15,15.7,16.1,"07:53:28",1
"17/05/12","08:10",0.0,20.3,76.9,1010.2,290.2,0.5,1.1,320.9,0.18,16.2,16.0,"08:00:08",1
"17/05/12","08:20",0.0,21.1,73.3,1010.0,287.0,0.2,1.1,332.7,0.27,16.2,16.2,"08:19:28",1
"17/05/12","08:30",0.0,21.3,72.9,1010.4,264.3,0.7,2.6,233.1,0.30,16.3,16.2,"08:29:04",1
"17/05/12","08:40",0.0,21.4,72.6,1009.7,257.0,0.7,1.9,334.8,0.32,16.3,16.6,"08:33:52",1
"17/05/12","08:50",0.0,22.4,69.5,1009.5,187.9,0.6,2.1,185.5,0.35,16.6,16.6,"08:48:56",1
"17/05/12","09:00",0.0,22.7,67.2,1009.3,130.8,0.7,1.8,135.2,0.37,16.3,16.7,"08:51:28",1
"17/05/12","09:10",0.0,23.1,66.2,1009.0,153.5,0.8,2.6,107.7,0.39,16.5,16.8,"09:03:20",1
"17/05/12","09:20",0.0,23.3,66.8,1008.6,142.5,1.1,3.2,126.9,0.41,16.8,17.0,"09:17:36",1
"17/05/12","09:30",0.0,23.8,65.1,1008.3,82.8,0.8,1.8,98.5,0.43,16.9,16.9,"09:23:04",1
"17/05/12","09:40",0.0,23.9,64.2,1008.3,120.0,0.7,2.2,109.0,0.45,16.8,17.2,"09:38:40",1
"17/05/12","09:50",0.0,23.9,65.5,1007.6,144.1,1.3,2.9,214.3,0.47,17.1,17.3,"09:45:44",1
"17/05/12","10:00",0.0,24.3,64.6,1007.6,177.8,1.7,3.2,218.8,0.48,17.2,17.5,"09:58:08",1
"17/05/12","10:10",0.0,24.3,64.0,1007.6,203.2,1.7,3.7,162.8,0.50,17.1,17.7,"10:05:04",1
"17/05/12","10:20",0.0,25.1,61.5,1007.6,147.0,1.2,3.5,150.1,0.52,17.2,17.8,"10:13:36",1
"17/05/12","10:30",0.0,25.4,58.3,1007.4,105.0,1.1,2.6,144.0,0.52,16.7,18.2,"10:29:44",1
"17/05/12","10:40",0.0,25.7,54.5,1007.6,140.4,1.2,2.8,183.5,0.54,15.9,18.1,"10:38:00",1
"17/05/12","10:50",0.0,25.8,54.6,1007.1,153.6,1.0,3.2,183.7,0.49,16.0,18.4,"10:43:20",1
"17/05/12","11:00",0.0,26.3,56.2,1007.6,133.6,0.8,3.5,138.4,0.58,16.9,18.5,"10:57:36",1
"17/05/12","11:10",0.0,26.2,55.7,1008.1,165.7,1.6,3.1,220.1,0.54,16.7,18.7,"11:09:28",1
"17/05/12","11:20",0.0,26.6,53.4,1007.8,163.3,1.7,3.6,193.4,0.58,16.4,18.7,"11:11:28",1
"17/05/12","11:30",0.0,26.6,54.7,1008.1,198.5,1.6,3.7,151.0,0.55,16.8,19.2,"11:29:44",1
"17/05/12","11:40",0.0,26.6,51.9,1007.8,143.1,1.6,3.6,139.8,0.52,16.0,19.3,"11:38:16",1
"17/05/12","11:50",0.0,26.1,54.5,1007.6,138.1,1.8,4.4,130.4,0.35,16.3,19.5,"11:41:36",1
"17/05/12","12:00",0.0,26.2,52.2,1007.1,127.7,1.7,3.7,133.2,0.28,15.7,19.4,"11:59:44",1
"17/05/12","12:10",0.2,26.0,51.2,1006.4,145.8,1.6,3.5,131.8,0.22,15.2,19.6,"12:03:04",1
"17/05/12","12:20",0.0,26.0,53.1,1006.4,171.9,1.7,4.0,141.0,0.21,15.8,19.5,"12:19:20",1
"17/05/12","12:30",0.6,26.1,50.9,1006.4,187.6,2.1,3.4,200.3,0.21,15.2,19.6,"12:23:12",1
"17/05/12","12:40",0.4,25.9,51.7,1006.2,181.1,2.5,4.3,204.6,0.19,15.2,19.5,"12:34:00",1
"17/05/12","12:50",0.0,26.3,52.2,1006.4,204.5,2.1,4.2,217.3,0.21,15.8,19.7,"12:44:08",1
"17/05/12","13:00",0.2,26.4,51.3,1006.2,189.2,2.3,4.0,234.9,0.25,15.6,19.6,"12:55:04",1
"17/05/12","13:10",0.0,26.1,51.7,1006.7,193.1,2.2,3.6,199.9,0.18,15.4,19.8,"13:00:16",1
"17/05/12","13:20",0.0,25.9,52.6,1006.2,175.9,1.8,4.0,196.7,0.14,15.5,19.7,"13:19:20",1
"17/05/12","13:30",0.2,25.9,52.0,1006.7,183.9,2.1,4.1,194.3,0.16,15.3,19.7,"13:25:44",1
"17/05/12","13:40",0.0,26.9,51.3,1006.2,196.5,1.8,2.9,211.7,0.29,16.0,19.8,"13:32:08",1
"17/05/12","13:50",0.0,26.5,49.8,1006.0,208.7,1.8,4.0,225.3,0.24,15.2,19.8,"13:46:56",1
"17/05/12","14:00",0.0,26.4,49.6,1006.2,196.2,1.7,3.4,246.5,0.20,15.1,19.7,"13:53:52",1
"17/05/12","14:10",0.0,26.6,50.1,1005.7,197.2,1.6,4.1,235.2,0.21,15.4,19.6,"14:09:28",1
"17/05/12","14:20",0.0,26.7,51.4,1006.0,202.5,1.7,2.7,229.9,0.21,15.9,19.7,"14:12:32",1
"17/05/12","14:30",0.0,26.8,51.0,1005.7,230.6,1.5,3.9,228.1,0.24,15.9,19.7,"14:23:20",1
"17/05/12","14:40",0.0,26.9,49.8,1005.5,202.4,1.3,2.5,119.5,0.24,15.6,19.8,"14:38:24",1
"17/05/12","14:50",0.2,26.8,49.0,1005.5,189.9,1.0,2.7,176.9,0.18,15.2,19.7,"14:40:24",1
"17/05/12","15:00",0.0,26.4,51.4,1005.7,160.9,1.0,2.5,140.3,0.15,15.6,19.7,"14:53:52",1
"17/05/12","15:10",0.0,26.3,52.5,1005.0,256.3,0.8,2.5,236.1,0.13,15.9,19.7,"15:00:40",1
"17/05/12","15:20",0.0,26.1,50.3,1005.5,208.2,1.5,3.2,205.9,0.12,15.0,19.7,"15:11:20",1
"17/05/12","15:30",0.0,26.0,49.4,1005.2,204.0,1.3,2.8,225.9,0.10,14.6,19.8,"15:29:20",1
"17/05/12","15:40",0.0,26.2,50.1,1005.2,238.5,0.8,2.0,242.8,0.11,15.0,19.9,"15:35:20",1
"17/05/12","15:50",0.0,26.1,48.1,1005.5,237.2,1.3,3.4,231.3,0.10,14.3,19.8,"15:42:08",1
"17/05/12","16:00",0.0,26.2,52.6,1005.2,260.6,1.1,2.1,237.2,0.11,15.8,19.6,"15:56:48",1
"17/05/12","16:10",0.0,26.3,48.3,1005.5,268.8,1.3,2.5,338.0,0.11,14.6,19.8,"16:01:28",1
"17/05/12","16:20",0.0,26.2,48.8,1005.7,267.1,1.2,2.2,316.0,0.10,14.6,19.8,"16:11:20",1
"17/05/12","16:30",0.0,26.1,50.0,1005.5,264.8,1.1,2.6,324.5,0.11,14.9,19.7,"16:20:16",1
"17/05/12","16:40",0.0,26.2,49.0,1005.5,260.7,1.2,3.4,233.2,0.08,14.7,19.4,"16:39:28",1
"17/05/12","16:50",0.0,25.8,51.0,1005.2,249.3,1.1,2.7,233.3,0.04,14.9,19.7,"16:42:48",1
"17/05/12","17:00",0.0,25.7,52.3,1005.2,263.0,0.8,1.6,253.4,0.05,15.2,19.6,"16:57:44",1
"17/05/12","17:10",0.0,25.5,51.2,1005.2,278.8,0.7,1.7,279.9,0.03,14.7,19.7,"17:06:48",1
"17/05/12","17:20",0.0,25.5,55.7,1004.5,298.3,0.6,1.7,313.1,0.04,16.0,19.4,"17:18:24",1
"17/05/12","17:30",0.0,25.0,56.0,1004.5,8.2,0.8,1.7,18.5,0.02,15.7,19.7,"17:26:40",1
"17/05/12","17:40",0.0,24.5,58.6,1004.3,344.7,1.2,2.1,334.2,0.01,15.9,19.5,"17:35:52",1
"17/05/12","17:50",0.0,24.1,61.1,1003.8,328.2,1.0,1.8,346.3,0.02,16.2,19.4,"17:41:12",1
"17/05/12","18:00",0.0,23.8,63.0,1004.1,298.0,1.2,1.9,316.2,0.01,16.4,19.3,"17:53:36",1
"17/05/12","18:10",0.0,23.6,64.6,1004.3,325.5,1.7,2.6,341.5,0.00,16.6,19.3,"18:05:20",1
"17/05/12","18:20",0.0,23.3,66.2,1004.3,323.7,1.8,2.7,329.6,0.00,16.7,19.3,"18:10:16",1
"17/05/12","18:30",0.0,23.0,67.0,1004.8,314.5,1.5,2.5,335.0,0.00,16.6,19.2,"18:23:04",1
"17/05/12","18:40",0.0,22.9,68.1,1004.8,279.3,1.0,1.3,312.4,0.00,16.7,19.2,"18:39:44",1
"17/05/12","18:50",0.0,22.6,68.9,1005.7,293.8,1.0,1.4,313.2,0.00,16.6,19.1,"18:46:00",1
"17/05/12","19:00",0.0,22.4,70.8,1005.5,331.8,1.2,2.5,314.3,0.00,16.9,18.9,"18:50:48",1
"17/05/12","19:10",0.0,21.8,72.2,1005.5,290.3,1.1,1.6,291.9,0.00,16.6,19.2,"19:06:24",1
"17/05/12","19:20",0.0,21.8,72.4,1006.0,326.4,1.8,2.8,335.2,0.00,16.7,18.9,"19:17:52",1
"17/05/12","19:30",0.0,21.6,72.6,1006.2,301.9,1.2,2.7,327.1,0.00,16.5,18.8,"19:20:32",1
"17/05/12","19:40",0.0,21.4,73.2,1006.7,285.0,0.8,1.3,319.5,0.00,16.4,18.8,"19:34:08",1
"17/05/12","19:50",0.0,21.2,73.2,1006.2,295.8,1.3,2.4,319.1,0.00,16.3,18.8,"19:42:40",1
"17/05/12","20:00",0.0,21.1,73.7,1006.7,298.7,0.8,1.2,328.5,0.00,16.3,18.7,"19:51:04",1
"17/05/12","20:10",0.2,21.1,73.6,1006.4,286.9,1.2,2.6,312.0,0.00,16.2,18.9,"20:07:36",1
"17/05/12","20:20",0.0,21.2,74.4,1006.0,344.4,1.3,2.5,347.7,0.00,16.5,18.6,"20:19:52",1
"17/05/12","20:30",0.0,20.9,75.7,1006.0,299.8,2.0,3.3,255.9,0.00,16.5,18.6,"20:20:02",1
"17/05/12","20:40",0.0,21.6,71.7,1006.7,249.9,1.8,3.5,243.6,0.00,16.3,18.6,"20:30:40",1
"17/05/12","20:50",0.0,21.8,70.7,1006.2,299.0,1.3,2.9,340.5,0.00,16.3,18.6,"20:48:40",1
"17/05/12","21:00",0.0,21.7,71.0,1005.0,358.9,2.1,3.4,352.5,0.00,16.3,18.6,"20:56:16",1
"17/05/12","21:10",0.0,21.9,70.2,1005.7,233.8,1.8,3.4,311.3,0.00,16.3,18.7,"21:02:24",1
"17/05/12","21:20",0.0,22.1,69.1,1005.7,211.0,0.8,2.5,238.3,0.00,16.2,18.5,"21:14:00",1
"17/05/12","21:30",0.0,22.0,69.6,1006.0,321.1,0.8,1.8,306.9,0.00,16.2,18.6,"21:20:02",1
"17/05/12","21:40",0.0,21.7,70.8,1006.0,318.3,1.7,3.3,327.8,0.00,16.2,18.6,"21:33:12",1
"17/05/12","21:50",0.0,21.4,72.1,1005.7,328.4,1.1,1.8,337.3,0.00,16.2,18.6,"21:47:12",1
"17/05/12","22:00",0.0,21.0,74.1,1005.5,332.9,1.3,2.0,338.5,0.00,16.3,18.3,"21:55:12",1
"17/05/12","22:10",0.0,20.6,76.3,1005.7,325.7,1.3,2.1,343.7,0.00,16.3,18.4,"22:02:32",1
"17/05/12","22:20",0.0,20.2,77.6,1006.0,306.6,0.8,1.8,339.6,0.00,16.2,18.3,"22:15:52",1
"17/05/12","22:30",0.0,20.1,78.1,1006.0,288.8,0.8,1.7,293.7,0.00,16.2,18.3,"22:29:36",1
"17/05/12","22:40",0.0,20.2,79.1,1006.0,338.5,1.5,2.5,336.6,0.00,16.5,18.3,"22:34:08",1
"17/05/12","22:50",0.0,19.8,81.5,1006.0,322.6,1.3,1.8,341.6,0.00,16.6,18.3,"22:40:48",1
"17/05/12","23:00",0.0,19.3,84.0,1005.5,313.9,1.2,1.8,307.3,0.00,16.6,18.1,"22:50:48",1
"17/05/12","23:10",0.0,19.1,86.2,1005.2,313.9,1.2,2.1,343.6,0.00,16.8,18.2,"23:05:04",1
"17/05/12","23:20",0.0,18.9,87.7,1005.5,278.0,1.1,1.8,311.1,0.00,16.9,18.1,"23:13:44",1
"17/05/12","23:30",0.0,18.8,88.7,1005.7,294.6,0.8,1.4,291.8,0.00,16.9,18.1,"23:20:08",1
"17/05/12","23:40",0.0,18.7,89.4,1006.0,304.3,1.0,1.9,312.4,0.00,17.0,18.2,"23:36:40",1
"17/05/12","23:50",0.0,18.6,90.3,1006.0,323.5,0.7,1.7,315.8,0.00,17.0,18.1,"23:45:20",1
"17/05/12","24:00",0.0,18.5,90.8,1006.0,313.4,1.1,1.9,308.0,0.00,17.0,18.2,"23:53:28",1
